Waarnemingen

Advertentie
Mijn weer
Greifswalder Oie, Duitsland (10097): temperatuur & dauwpunt: 15.01.2017 18:00:00 - 21.01.2017 18:00:00 (CET)Greifswalder Oie, Duitsland (10097): temperatuur 5cm & temperatuur -5cm: 15.01.2017 18:00:00 - 21.01.2017 18:00:00 (CET)Greifswalder Oie, Duitsland (10097): temperatuur -20cm & temperatuur -100cm: 15.01.2017 18:00:00 - 21.01.2017 18:00:00 (CET)Greifswalder Oie, Duitsland (10097): windsnelheid & windstoten: 15.01.2017 18:00:00 - 21.01.2017 18:00:00 (CET)Greifswalder Oie, Duitsland (10097): windrichting: 15.01.2017 18:00:00 - 21.01.2017 18:00:00 (CET)Greifswalder Oie, Duitsland (10097): luchtdruk: 15.01.2017 18:00:00 - 21.01.2017 18:00:00 (CET)Greifswalder Oie, Duitsland (10097): zicht: 15.01.2017 18:00:00 - 21.01.2017 18:00:00 (CET)Greifswalder Oie, Duitsland (10097): neerslag: 15.01.2017 18:00:00 - 21.01.2017 18:00:00 (CET)
Datum & Tijd tt [°C] td [°C] tt 5cm [°C] tt -5cm [°C] tt -20cm [°C] tt -100cm [°C] ff [km/u] ff [kn] fx [km/u] fx [kn] dd ppp [hPa] vv [km] rr [mm]
21.01.2017 18:00:00 1,7 1,7 1,7 1,6 1,6 3,8 11 6 17 9 ZW 1031,3 0,3 0,0
21.01.2017 17:00:00 1,8 1,8 1,8 1,7 1,5 3,8 12 7 15 8 ZW 1031,2 0,5 0,0
21.01.2017 16:00:00 2,1 2,1 2,1 1,8 1,4 3,8 14 8 17 9 ZW 1031,0 2,1 0,0
21.01.2017 15:00:00 1,8 1,7 2,0 1,7 1,2 3,8 8 4 17 9 W 1031,1 0,2 0,0
21.01.2017 14:00:00 2,0 1,9 2,2 1,2 1,0 3,8 11 6 18 10 W 1031,2 0,3 0,0
21.01.2017 13:00:00 1,9 1,9 2,2 0,7 0,9 3,8 14 8 19 11 W 1031,3 0,2 0,0
21.01.2017 12:00:00 1,9 1,9 2,0 0,4 0,8 3,8 16 9 22 12 WZW 1031,4 0,2 0,0
21.01.2017 11:00:00 1,9 1,8 2,1 0,3 0,7 3,8 16 8 25 14 W 1031,8 0,2 0,0
21.01.2017 10:00:00 1,9 1,9 2,0 0,2 0,7 3,8 20 11 30 16 W 1031,5 0,3 0,0
21.01.2017 09:00:00 1,8 1,8 1,8 0,1 0,7 3,8 26 14 30 16 WZW 1030,9 0,4 0,0
21.01.2017 08:00:00 1,4 1,4 1,4 0,0 0,7 3,8 19 10 28 15 WZW 1030,6 0,3 0,0
21.01.2017 07:00:00 1,7 1,5 1,6 0,0 0,7 3,8 24 13 28 15 W 1030,2 0,4 0,0
21.01.2017 06:00:00 1,7 1,3 1,6 0,0 0,7 3,8 23 13 28 15 W 1030,1 1,9 0,0
21.01.2017 05:00:00 1,7 1,3 1,6 0,0 0,7 3,8 25 14 31 17 W 1030,2 1,9 0,0
21.01.2017 04:00:00 1,6 1,2 1,5 0,0 0,7 3,8 25 14 32 17 W 1030,3 1,8 0,0
21.01.2017 03:00:00 1,4 1,0 1,4 0,0 0,7 3,8 26 14 29 15 W 1030,5 1,8 0,0
21.01.2017 02:00:00 1,5 1,2 1,4 0,0 0,7 3,8 22 12 29 16 W 1030,8 1,9 0,0
21.01.2017 01:00:00 1,6 1,1 1,5 0,0 0,7 3,8 26 14 34 18 W 1030,8 2,1 0,0
21.01.2017 00:00:00 1,8 1,3 1,7 0,0 0,7 3,8 28 15 34 18 W 1031,2 2,4 0,0
20.01.2017 23:00:00 1,8 1,3 1,6 -0,1 0,7 3,8 29 16 34 18 W 1031,3 2,4 0,0
20.01.2017 22:00:00 1,8 1,5 1,6 -0,1 0,6 3,8 25 14 32 18 W 1031,6 2,0 0,0
20.01.2017 21:00:00 1,7 1,5 1,5 -0,1 0,7 3,8 25 13 32 17 WZW 1031,6 1,8 0,0
20.01.2017 20:00:00 1,5 1,3 1,0 -0,1 0,7 3,9 29 15 40 22 WZW 1031,3 1,3 0,0
20.01.2017 19:00:00 1,8 1,5 1,4 -0,1 0,7 3,9 35 19 44 24 W 1031,1 2,5 0,0
20.01.2017 18:00:00 2,3 1,9 1,7 -0,1 0,7 3,9 36 20 42 23 W 1031,0 6 0,0
20.01.2017 17:00:00 2,2 1,6 1,9 -0,1 0,6 3,9 34 18 41 22 W 1031,5 4,9 0,0
20.01.2017 16:00:00 2,3 1,6 1,7 -0,1 0,7 3,9 35 19 42 23 W 1031,3 5 0,0
20.01.2017 15:00:00 2,3 1,3 1,9 -0,1 0,7 3,9 34 19 44 24 W 1031,5 3,8 0,0
20.01.2017 14:00:00 2,4 1,3 2,1 -0,1 0,7 3,9 38 21 44 24 WZW 1031,5 3,0 0,0
20.01.2017 13:00:00 2,4 1,5 2,3 -0,1 0,7 3,9 37 20 42 23 W 1031,6 3,2 0,0
20.01.2017 12:00:00 2,0 1,4 2,0 -0,1 0,7 3,9 36 20 44 24 W 1031,8 2,6 0,0
20.01.2017 11:00:00 1,6 1,2 1,5 -0,1 0,6 3,9 34 19 42 23 WZW 1032,2 2,1 0,0
20.01.2017 10:00:00 1,4 1,2 1,4 -0,1 0,6 3,9 29 16 37 20 WZW 1032,6 1,6 0,0
20.01.2017 09:00:00 1,2 1,0 1,1 -0,1 0,6 3,9 31 17 37 20 W 1032,5 1,6 0,0
20.01.2017 08:00:00 1,1 1,0 1,0 -0,1 0,7 3,9 29 16 35 19 WZW 1032,7 1,1 0,0
20.01.2017 07:00:00 1,2 1,1 1,1 -0,1 0,6 3,9 28 15 34 18 WZW 1032,8 0,5 0,0
20.01.2017 06:00:00 0,9 0,9 0,8 -0,1 0,6 3,9 23 12 31 17 WZW 1033,2 0,3 0,0
20.01.2017 05:00:00 1,1 0,9 1,0 -0,1 0,6 3,9 27 15 33 18 WZW 1033,3 0,3 0,0
20.01.2017 04:00:00 1,1 0,7 0,9 -0,1 0,6 3,9 30 16 35 19 WZW 1033,2 1,8 0,0
20.01.2017 03:00:00 1,1 0,6 0,9 -0,1 0,6 3,9 32 17 39 21 W 1033,2 1,9 0,0
20.01.2017 02:00:00 1,0 0,5 0,8 -0,1 0,6 3,9 34 18 39 21 W 1033,3 1,7 0,0
20.01.2017 01:00:00 0,9 0,5 0,8 -0,1 0,6 3,9 33 18 40 22 W 1033,8 1,5 0,0
20.01.2017 00:00:00 0,8 0,4 0,7 -0,1 0,6 3,9 32 17 42 23 W 1034,1 1,4 0,0
19.01.2017 23:00:00 0,8 0,5 0,7 -0,1 0,6 3,9 36 20 44 24 WZW 1034,5 1,4 0,0
19.01.2017 22:00:00 0,9 0,5 0,7 -0,1 0,6 3,9 34 19 44 24 WZW 1034,4 1,8 0,0
19.01.2017 21:00:00 0,9 0,6 0,8 -0,1 0,6 3,9 37 20 44 24 WZW 1034,2 1,7 0,0
19.01.2017 20:00:00 0,6 0,4 0,5 -0,1 0,6 3,9 31 17 36 19 WZW 1034,4 1,5 0,0
19.01.2017 19:00:00 0,2 0,0 0,2 -0,1 0,6 3,9 29 16 39 21 W 1034,7 0,9 0,0
19.01.2017 18:00:00 0,1 -0,1 0,0 -0,1 0,6 3,9 30 16 37 20 WZW 1034,8 0,8 0,0
19.01.2017 17:00:00 0,0 -0,3 -0,1 -0,1 0,6 3,9 29 16 41 22 WZW 1034,9 1,9 0,0
19.01.2017 16:00:00 -0,1 -0,5 -0,1 -0,1 0,6 3,9 34 18 44 24 WZW 1034,8 1,3 0,0
19.01.2017 15:00:00 -0,3 -0,8 -0,3 -0,1 0,6 3,9 34 18 42 23 WZW 1035,0 2,5 0,0
19.01.2017 14:00:00 -0,1 -1,3 0,0 -0,1 0,6 3,9 33 18 46 25 W 1035,3 4,8 0,0
19.01.2017 13:00:00 -0,3 -2,0 -0,1 -0,2 0,6 3,9 38 20 48 26 WZW 1035,6 5 0,0
19.01.2017 12:00:00 -0,4 -1,8 -0,2 -0,2 0,6 3,9 40 22 48 26 WZW 1035,9 5 0,0
19.01.2017 11:00:00 -0,6 -2,0 -0,7 -0,2 0,6 3,9 39 21 48 26 WZW 1036,2 4,0 0,0
19.01.2017 10:00:00 -0,4 -2,3 -0,4 -0,3 0,6 3,9 39 21 48 26 W 1036,2 7 0,0
19.01.2017 09:00:00 -0,1 -3,5 -0,1 -0,3 0,6 3,9 37 20 48 26 WZW 1036,0 12 0,0
19.01.2017 08:00:00 -0,1 -3,7 -0,2 -0,3 0,6 3,9 36 20 45 24 WZW 1035,8 13 0,0
19.01.2017 07:00:00 -0,3 -3,6 -0,4 -0,3 0,6 3,9 35 19 44 24 WZW 1035,5 12 0,0
19.01.2017 06:00:00 -0,4 -3,5 -0,5 -0,3 0,6 3,9 34 18 45 24 WZW 1035,7 10 0,0
19.01.2017 05:00:00 -0,4 -3,0 -0,7 -0,3 0,6 3,9 38 20 47 25 WZW 1035,9 9 0,0
19.01.2017 04:00:00 -0,4 -3,1 -0,4 -0,3 0,6 3,9 33 18 49 27 WZW 1036,7 9 0,0
19.01.2017 03:00:00 -0,5 -3,4 -0,5 -0,3 0,7 4,0 39 21 46 25 WZW 1036,7 9 0,0
19.01.2017 02:00:00 -0,5 -3,3 -0,6 -0,3 0,6 4,0 34 18 44 24 WZW 1037,0 8 0,0
19.01.2017 01:00:00 -0,5 -3,1 -0,6 -0,3 0,6 4,0 35 19 43 23 WZW 1037,1 8 0,0
19.01.2017 00:00:00 -0,6 -3,3 -0,6 -0,3 0,6 4,0 36 20 40 22 ZW 1037,3 8 0,0
18.01.2017 23:00:00 -0,7 -3,4 -0,7 -0,2 0,7 4,0 32 17 38 21 ZW 1037,6 8 0,0
18.01.2017 22:00:00 -0,7 -3,3 -0,8 -0,2 0,6 4,0 34 18 38 21 ZW 1037,6 8 0,0
18.01.2017 21:00:00 -0,6 -3,2 -0,6 -0,1 0,6 4,0 30 16 35 19 ZW 1037,9 8 0,0
18.01.2017 20:00:00 -0,4 -3,1 -0,4 -0,1 0,6 4,0 29 16 34 19 ZW 1037,9 10 0,0
18.01.2017 19:00:00 -0,1 -2,9 -0,2 -0,1 0,6 4,0 29 16 36 19 ZW 1038,0 11 0,0
18.01.2017 18:00:00 -0,1 -2,6 -0,3 -0,1 0,6 4,0 29 15 35 19 WZW 1038,5 8 0,0
18.01.2017 17:00:00 0,0 -2,4 -0,1 -0,1 0,6 4,0 26 14 31 17 ZW 1038,7 9 0,0
18.01.2017 16:00:00 0,1 -2,3 0,0 -0,1 0,6 4,0 26 14 34 18 ZW 1038,7 11 0,0
18.01.2017 15:00:00 0,2 -2,2 0,2 -0,1 0,6 4,0 29 16 34 18 ZW 1038,4 11 0,0
18.01.2017 14:00:00 0,2 -2,2 0,3 -0,1 0,6 4,0 27 15 35 19 ZW 1038,5 9 0,0
18.01.2017 13:00:00 -0,1 -2,4 0,2 -0,2 0,6 4,0 25 13 32 17 WZW 1038,9 6 0,0
18.01.2017 12:00:00 -0,4 -2,5 -0,3 -0,2 0,6 4,0 24 13 30 16 WZW 1039,2 7 0,0
18.01.2017 11:00:00 -0,5 -2,5 -0,3 -0,2 0,6 4,0 20 11 29 16 ZW 1039,5 7 0,0
18.01.2017 10:00:00 -0,6 -2,4 -0,7 -0,3 0,6 4,0 22 12 28 15 WZW 1039,1 6 0,0
18.01.2017 09:00:00 -0,8 -2,5 -1,0 -0,4 0,6 4,0 23 13 28 15 WZW 1039,2 6 0,0
18.01.2017 08:00:00 -1,0 -2,2 -1,1 -0,4 0,6 4,0 23 13 32 18 WZW 1038,5 6 0,1
18.01.2017 07:00:00 -0,7 -2,8 -0,7 -0,5 0,6 4,0 29 16 35 19 W 1038,3 8 0,0
18.01.2017 06:00:00 -0,8 -3,3 -1,0 -0,5 0,7 4,0 28 15 35 19 WZW 1038,2 17 0,0
18.01.2017 05:00:00 -0,7 -3,5 -0,9 -0,5 0,7 4,0 29 15 36 19 WZW 1038,4 22 0,0
18.01.2017 04:00:00 -1,1 -3,3 -1,3 -0,5 0,7 4,0 24 13 33 18 ZW 1038,8 12 0,0
18.01.2017 03:00:00 -0,8 -2,9 -1,3 -0,5 0,7 4,0 23 13 29 16 WZW 1039,0 14 0,0
18.01.2017 02:00:00 -0,7 -3,2 -1,2 -0,3 0,7 4,0 23 12 29 15 ZW 1039,1 16 0,0
18.01.2017 01:00:00 -0,7 -2,6 -1,1 -0,2 0,7 4,0 19 10 24 13 WZW 1038,9 9 0,0
18.01.2017 00:00:00 -0,6 -2,2 -0,9 -0,2 0,7 4,0 19 11 22 12 WZW 1038,9 10 0,0
17.01.2017 23:00:00 -0,5 -1,9 -0,8 -0,1 0,7 4,0 18 10 22 12 WZW 1038,9 11 0,0
17.01.2017 22:00:00 -0,3 -1,7 -0,8 -0,1 0,7 4,0 17 9 21 12 WZW 1038,8 11 0,0
17.01.2017 21:00:00 0,0 -1,8 -0,5 -0,1 0,7 4,0 17 9 21 11 W 1039,0 18 0,0
17.01.2017 20:00:00 0,2 -2,1 -0,2 -0,1 0,7 4,0 11 6 16 9 W 1038,8 70 0,0
17.01.2017 19:00:00 0,3 -2,4 -0,2 -0,1 0,7 4,0 9 5 11 6 W 1038,3 70 0,0
17.01.2017 18:00:00 -0,1 -2,0 -0,8 -0,1 0,7 4,0 9 5 13 7 NW 1038,0 70 0,0
17.01.2017 17:00:00 0,0 -2,0 -1,0 -0,1 0,6 4,0 7 4 19 10 N 1037,6 70 0,0
17.01.2017 16:00:00 0,3 -1,6 -0,5 -0,1 0,7 4,1 13 7 21 11 N 1037,4 70 0,0
17.01.2017 15:00:00 0,8 -1,2 0,3 -0,1 0,6 4,1 16 9 27 14 N 1037,3 65 0,0
17.01.2017 14:00:00 1,9 -1,0 1,1 -0,2 0,6 4,1 16 8 20 11 NNW 1036,9 59 0,0
17.01.2017 13:00:00 2,2 -0,6 1,2 -0,2 0,6 4,1 17 9 21 11 NW 1036,8 37 0,0
17.01.2017 12:00:00 1,7 -1,4 1,2 -0,2 0,6 4,1 7 4 13 7 WZW 1036,4 47 0,0
17.01.2017 11:00:00 1,6 -1,5 0,6 -0,3 0,6 4,1 9 5 12 6 WNW 1036,1 47 0,0
17.01.2017 10:00:00 1,6 -0,6 1,5 -0,3 0,6 4,1 3 2 12 7 NNW 1035,8 70 0,0
17.01.2017 09:00:00 0,0 -1,3 -1,0 -0,4 0,6 4,1 7 4 13 7 NNW 1035,4 66 0,0
17.01.2017 08:00:00 0,1 -1,2 -1,1 -0,4 0,6 4,1 4 2 9 5 W 1034,4 39 0,0
17.01.2017 07:00:00 -0,1 -1,1 -1,1 -0,4 0,7 4,1 8 4 16 9 NW 1033,7 39 0,0
17.01.2017 06:00:00 -0,1 -1,4 -0,6 -0,4 0,7 4,1 14 8 21 12 NW 1033,2 52 0,0
17.01.2017 05:00:00 -0,2 -2,1 -0,8 -0,4 0,7 4,1 15 8 17 9 NW 1032,9 66 0,0
17.01.2017 04:00:00 0,0 -2,2 -0,6 -0,4 0,7 4,1 13 7 21 11 NW 1032,4 59 0,0
17.01.2017 03:00:00 0,0 -1,9 -0,5 -0,4 0,7 4,1 16 9 19 11 NW 1032,1 52 0,0
17.01.2017 02:00:00 -0,1 -1,4 -0,5 -0,4 0,7 4,1 12 6 14 8 WZW 1031,4 15 0,0
17.01.2017 01:00:00 0,1 -2,4 -0,9 -0,5 0,7 4,1 3 1 9 5 ZW 1031,1 70 0,0
17.01.2017 00:00:00 -0,2 -2,5 -0,9 -0,6 0,7 4,1 6 3 8 5 WZW 1030,6 70 0,0
16.01.2017 23:00:00 -0,2 -2,9 -2,0 -0,7 0,7 4,1 6 3 8 5 ZZO 1030,2 51 0,0
16.01.2017 22:00:00 -0,5 -3,3 -4,6 -0,7 0,7 4,1 4 2 10 5 NNO 1029,6 70 0,0
16.01.2017 21:00:00 -0,5 -3,5 -2,0 -0,7 0,7 4,1 8 4 15 8 NO 1029,0 62 0,0
16.01.2017 20:00:00 -0,4 -3,1 -3,4 -0,6 0,7 4,1 5 3 15 8 ONO 1028,1 69 0,0
16.01.2017 19:00:00 -0,3 -2,9 -1,7 -0,7 0,7 4,1 10 5 16 9 N 1027,5 70 0,0
16.01.2017 18:00:00 -0,6 -3,2 -2,1 -0,5 0,7 4,1 12 7 22 12 N 1027,1 70 0,0
16.01.2017 17:00:00 -0,6 -3,4 -1,9 -0,2 0,7 4,1 17 9 28 15 N 1026,7 70 0,0
16.01.2017 16:00:00 -0,2 -3,3 -1,3 -0,1 0,7 4,1 19 11 25 13 NNW 1026,2 67 0,0
16.01.2017 15:00:00 0,5 -3,0 -0,4 -0,1 0,7 4,1 13 7 20 11 NNW 1025,6 70 0,0
16.01.2017 14:00:00 0,5 -3,4 0,4 -0,1 0,7 4,1 13 7 21 11 N 1025,2 70 0,0
16.01.2017 13:00:00 0,5 -2,9 0,5 -0,2 0,7 4,1 13 7 23 12 N 1025,0 70 0,0
16.01.2017 12:00:00 0,4 -2,7 0,4 -0,2 0,7 4,1 15 8 29 16 N 1024,7 65 0,0
16.01.2017 11:00:00 0,4 -2,7 0,2 -0,2 0,7 4,1 16 9 31 17 N 1024,4 58 0,0
16.01.2017 10:00:00 0,2 -2,7 -0,2 -0,3 0,7 4,1 21 11 27 15 N 1024,0 69 0,0
16.01.2017 09:00:00 -0,2 -2,8 -0,6 -0,5 0,8 4,1 13 7 29 15 N 1023,4 57 0,0
16.01.2017 08:00:00 -0,3 -3,0 -0,9 -0,5 0,8 4,1 18 10 33 18 N 1022,7 63 0,0
16.01.2017 07:00:00 -0,4 -2,8 -1,4 -0,4 0,8 4,1 22 12 36 20 N 1022,2 55 0,0
16.01.2017 06:00:00 -0,1 -2,7 -0,7 -0,5 0,8 4,1 26 14 35 19 N 1021,7 68 0,0
16.01.2017 05:00:00 -0,3 -2,7 -1,6 -0,6 0,8 4,1 22 12 29 16 N 1021,2 66 0,0
16.01.2017 04:00:00 -0,5 -2,6 -1,9 -0,5 0,8 4,1 24 13 32 18 NNW 1021,2 57 0,0
16.01.2017 03:00:00 -0,4 -3,2 -1,9 -0,5 0,8 4,2 22 12 31 17 NNW 1021,1 70 0,0
16.01.2017 02:00:00 -0,3 -3,4 -1,7 -0,4 0,8 4,2 24 13 30 16 NNW 1020,8 70 0,0
16.01.2017 01:00:00 -0,3 -3,1 -1,8 -0,3 0,8 4,2 18 10 26 14 N 1020,5 70 0,0
16.01.2017 00:00:00 0,0 -2,7 -1,7 -0,2 0,8 4,2 20 11 29 16 N 1020,1 70 0,0
15.01.2017 23:00:00 0,0 -2,7 -1,6 -0,1 0,8 4,2 19 11 31 17 N 1019,7 67 0,0
15.01.2017 22:00:00 0,4 -2,7 -0,9 -0,1 0,8 4,2 26 14 35 19 N 1019,1 70 0,0
15.01.2017 21:00:00 0,4 -3,3 -0,8 -0,1 0,8 4,2 26 14 36 20 N 1018,6 70 0,0
15.01.2017 20:00:00 0,5 -3,4 -0,5 -0,1 0,8 4,2 21 11 39 21 N 1017,9 70 0,0
15.01.2017 19:00:00 0,6 -2,8 0,2 -0,1 0,8 4,2 26 14 42 23 N 1017,4 64 0,0
15.01.2017 18:00:00 0,7 -2,5 0,3 -0,1 0,8 4,2 31 17 43 23 N 1016,7 61 0,0

tt = temperatuur
td = dauwpunt
tt 5cm = temperatuur 5cm
tt -5cm = temperatuur -5cm
tt -20cm = temperatuur -20cm
tt -100cm = temperatuur -100cm
ff = windsnelheid
fx = windstoten
dd = windrichting
ppp = luchtdruk
vv = zicht
rr = neerslag

Weerstations in de omgeving